Powrót do katalogu

FREGAT DEB

LostUNKNOWN
NORAD 46097·DEBRIS·🇷🇺 Russia

Wystrzelony Jul 18, 2011 z Baikonur Cosmodrome

Loading…

Następne Przeloty (najbliższe 24 godziny)

TLE

NieaktualneSource: Space-Track

Epoka: Apr 20, 2022, 22:15 UTC

1 46097U 11037JG  22110.92777731  .00107668  00000-0  59074+0 0  9999
2 46097  51.1608 292.7421 2175586 168.7205 197.1751  9.68766023 59461

Śledź FREGAT DEB w czasie rzeczywistym z AllMySat

Download on the App Store